Location: Góry Miechowskie
(50.3599°N, 20.1803°E)
Time: 21:01:14
(UTC+00:00)

Cosmos 2219 - Pass Details

Date: 18 September 2024
Orbit: 831 x 860 km, 71.1° (Epoch: 13 October)

Event Time Altitude Azimuth Distance (km) Brightness Sun altitude
Rises 02:26:42 0° 146° (SSE) 3,393 6.4 -18.2°
Reaches altitude 10° 02:30:40 10° 119° (ESE) 2,472 6.1 -17.6°
Maximum altitude 02:32:56 13° 95° (E) 2,301 6.3 -17.3°
Drops below altitude 10° 02:35:13 10° 71° (ENE) 2,487 7.0 -16.9°
Sets 02:39:13 0° 44° (NE) 3,436 7.7 -16.4°
